Wind_Speed
61 58 56 54 52 50 46 42 34 24 19 22 22 23 29 43 58 73 83 91 100 108 116 124 130 132 130 127 124 120 115 109 103 98 94 88 81 73
59 56 54 52 51 48 45 41 35 27 18 19 22 23 26 36 50 65 76 84 92 100 108 117 124 130 130 129 126 122 117 112 106 100 96 91 85 77
57 54 53 51 50 47 44 41 36 30 21 17 21 22 25 32 43 57 69 76 83 92 100 109 117 125 130 130 128 125 120 115 109 103 98 94 89 81
54 52 51 49 48 46 43 40 36 31 24 17 19 21 23 28 38 51 62 70 75 83 92 101 110 118 126 129 129 126 122 117 112 106 101 96 92 86
53 50 48 47 46 45 43 39 35 31 26 19 17 20 21 25 34 46 56 63 68 74 83 93 102 111 119 126 129 128 124 119 113 108 104 100 95 90
52 49 47 45 44 44 42 39 35 31 27 21 17 17 19 22 30 41 51 58 63 67 75 84 93 102 111 120 126 127 125 121 117 112 107 102 98 93
52 48 45 43 42 42 41 38 34 30 26 22 18 16 17 20 27 37 46 54 58 62 68 76 84 94 104 113 121 126 125 122 118 113 109 104 100 95
52 47 44 42 41 40 40 38 35 31 27 23 18 15 15 17 25 34 43 50 54 58 62 68 76 85 95 105 115 121 124 123 120 116 111 107 102 98
52 48 43 41 39 38 38 37 35 31 27 23 18 15 13 15 23 32 41 47 51 55 57 61 69 76 86 97 107 117 122 122 120 117 113 109 105 100
52 48 43 40 38 37 36 36 34 32 28 23 18 14 12 14 22 31 39 45 49 51 54 55 62 69 79 89 100 110 117 121 120 118 114 110 106 102
51 49 44 39 37 36 35 34 33 32 28 23 17 13 10 13 20 29 37 43 47 49 51 52 56 62 72 82 92 103 111 117 119 118 115 112 108 103
50 48 45 39 36 34 34 33 32 30 27 23 17 11 8 12 20 28 36 41 45 47 49 50 52 57 64 75 85 96 105 112 116 117 116 113 109 105
49 47 44 40 35 33 33 33 32 30 27 23 17 10 6 10 18 27 34 39 42 45 47 48 50 53 60 69 80 90 99 107 111 114 115 113 110 106
48 46 44 40 35 32 32 32 31 30 27 23 16 10 4 9 17 25 32 37 41 43 45 46 47 51 57 65 75 84 93 101 107 110 113 113 110 106
47 46 44 41 36 32 30 30 30 29 27 23 16 9 2 8 15 23 30 35 39 41 43 44 46 49 55 63 72 80 88 95 103 107 110 111 109 105
46 45 44 42 38 33 30 29 29 28 27 23 17 10 2 6 13 21 28 33 37 39 41 43 45 48 53 61 70 77 84 90 97 103 106 108 108 103
44 44 43 42 39 35 30 27 27 27 26 23 18 11 4 5 11 17 25 31 35 38 40 41 43 47 53 61 68 75 81 86 91 96 101 105 106 102
43 42 42 40 38 35 30 26 25 24 24 22 18 12 6 7 11 16 22 28 32 35 37 38 40 47 54 61 68 73 78 82 87 91 97 101 102 100
41 41 40 39 38 35 31 25 23 22 22 20 17 12 8 8 12 16 21 26 30 33 35 36 38 44 52 60 67 72 76 79 82 87 92 97 98 96
40 40 39 38 36 35 31 26 22 20 19 18 15 11 8 9 12 16 21 25 29 33 35 35 38 44 52 59 65 71 75 76 77 81 87 91 94 93
38 38 37 36 35 34 31 27 21 18 16 15 14 11 8 9 13 17 20 24 29 33 34 34 38 44 52 58 63 69 74 75 75 76 82 88 91 91
35 36 36 35 34 32 30 27 22 17 14 13 11 9 8 9 12 16 19 24 30 33 33 35 39 44 49 55 61 67 71 73 73 75 77 83 88 89
33 34 34 34 33 31 29 26 23 17 13 11 9 8 7 9 12 15 18 24 30 31 32 36 39 41 47 54 60 65 68 70 72 73 75 78 80 81
Wind_Direction
340 340 342 343 343 341 338 335 331 321 293 279 272 257 238 225 219 214 211 211 211 211 211 209 207 206 206 206 207 207 207 207 206 205 205 204 205 207
341 342 343 344 344 343 341 338 333 328 309 278 271 261 244 228 221 216 212 211 211 212 211 211 209 207 206 206 206 206 206 207 206 206 205 204 204 205
341 342 343 344 345 345 343 340 335 330 321 289 274 265 249 232 222 217 213 211 211 212 212 211 210 209 207 206 205 205 206 206 206 205 205 205 204 205
342 342 344 345 346 346 345 342 339 333 326 306 279 268 254 236 223 217 213 212 211 211 212 212 211 210 208 206 205 205 205 205 205 205 205 205 205 205
343 343 344 345 347 347 346 344 341 336 330 317 291 273 257 239 223 216 212 211 210 211 212 212 212 211 210 207 205 204 204 204 204 204 204 205 205 205
344 344 344 345 347 348 347 345 343 338 332 322 302 279 259 238 222 214 210 209 209 209 211 212 213 212 211 209 206 204 203 203 203 204 204 204 205 205
347 345 345 346 347 348 349 347 344 341 335 327 310 286 262 236 218 211 208 206 206 207 209 210 212 212 211 210 207 205 203 203 203 203 203 204 204 205
349 346 345 347 348 348 348 348 345 342 337 329 316 294 265 235 215 207 205 204 203 205 207 209 211 212 212 210 208 206 204 203 203 203 203 204 204 205
350 348 346 347 348 349 349 349 347 342 338 333 320 299 268 233 212 204 202 201 201 202 204 207 209 211 211 211 209 207 204 203 203 202 202 203 204 205
350 350 348 347 348 350 350 349 348 345 340 335 325 304 270 232 210 201 199 198 199 200 201 204 208 210 211 210 210 208 205 203 203 202 202 203 204 205
350 351 350 348 348 350 351 351 350 347 344 339 330 309 271 229 207 199 196 197 197 198 198 201 205 208 209 209 209 208 206 204 203 202 202 203 204 205
351 351 351 350 349 350 353 354 353 350 347 343 336 317 271 225 204 196 194 195 196 196 197 199 203 205 207 207 207 207 206 204 203 203 202 202 204 205
352 352 352 351 349 351 354 356 356 354 352 349 343 328 274 218 201 194 192 193 194 195 196 198 201 203 205 205 205 206 205 204 203 203 202 203 203 204
353 354 354 354 352 353 356 358 359 358 356 354 349 338 282 209 196 191 190 190 192 193 195 197 199 201 201 202 202 203 203 203 203 203 203 203 204 204
353 355 356 357 356 356 358 360 1 1 -0 359 358 351 298 199 192 189 188 189 191 192 194 196 198 199 199 198 199 200 200 201 202 203 203 203 203 204
354 355 356 358 360 0 0 1 2 3 5 6 7 7 11 184 187 188 188 188 189 191 193 195 197 197 195 194 195 195 197 198 200 202 203 203 203 204
354 356 358 0 1 1 0 1 3 5 7 10 12 16 43 155 176 184 186 186 187 188 190 193 195 194 192 192 191 192 194 196 198 200 202 203 203 203
355 357 359 1 2 2 2 3 5 7 10 13 17 26 61 129 157 171 178 181 182 185 187 188 192 192 189 188 187 188 190 193 196 198 200 202 202 203
355 358 359 1 3 4 4 5 8 10 14 18 24 36 68 119 144 158 166 171 176 178 179 180 185 187 186 185 185 184 185 187 191 195 198 200 201 202
355 358 360 1 3 5 6 8 10 13 17 23 31 44 73 115 140 153 161 166 170 173 174 176 179 181 180 180 181 182 181 182 187 192 196 199 200 201
355 358 360 1 3 5 7 9 12 15 20 26 35 49 77 116 142 153 161 166 169 171 172 173 174 175 176 177 179 179 178 179 182 188 195 198 199 200
355 357 359 1 3 5 7 10 12 16 21 28 38 54 83 120 144 156 162 166 168 168 168 169 172 175 177 177 177 176 176 177 181 186 192 198 200 201
355 357 359 1 3 5 7 10 12 15 21 30 42 61 90 123 145 157 163 168 169 168 168 170 172 175 177 176 178 177 175 176 178 183 188 194 198 200
Height
5369 5354 5338 5324 5310 5297 5285 5275 5268 5264 5260 5256 5253 5252 5253 5257 5264 5276 5292 5310 5326 5345 5365 5389 5415 5443 5471 5498 5524 5549 5573 5596 5618 5638 5656 5674 5691 5705
5365 5350 5336 5322 5308 5295 5283 5273 5264 5259 5256 5252 5249 5248 5248 5251 5257 5268 5282 5297 5314 5333 5353 5375 5399 5425 5451 5478 5505 5531 5557 5581 5604 5625 5644 5662 5679 5694
5361 5347 5333 5319 5306 5294 5282 5271 5262 5255 5252 5249 5246 5245 5244 5247 5252 5261 5274 5289 5305 5322 5340 5360 5382 5405 5431 5459 5486 5513 5540 5565 5589 5611 5630 5650 5667 5684
5358 5344 5331 5317 5305 5292 5281 5270 5261 5253 5248 5245 5243 5241 5241 5243 5248 5256 5268 5281 5296 5312 5328 5346 5367 5389 5414 5441 5468 5496 5523 5548 5573 5596 5619 5639 5656 5671
5355 5342 5329 5316 5304 5291 5280 5269 5260 5252 5246 5242 5240 5238 5237 5239 5243 5251 5262 5276 5290 5304 5319 5337 5356 5376 5399 5425 5451 5479 5507 5536 5562 5584 5603 5623 5641 5659
5352 5339 5327 5314 5303 5291 5279 5269 5260 5252 5245 5240 5237 5235 5234 5235 5239 5247 5258 5270 5284 5297 5312 5328 5345 5365 5387 5412 5441 5468 5494 5518 5542 5567 5589 5610 5629 5647
5350 5336 5324 5312 5301 5290 5279 5269 5260 5252 5245 5239 5235 5232 5231 5232 5236 5243 5254 5265 5279 5292 5306 5321 5338 5358 5377 5401 5425 5451 5478 5504 5529 5553 5576 5597 5617 5635
5347 5334 5322 5311 5300 5289 5278 5268 5259 5251 5244 5238 5234 5231 5229 5230 5234 5240 5250 5261 5275 5288 5301 5315 5330 5348 5367 5389 5413 5438 5464 5489 5515 5539 5563 5584 5604 5623
5345 5333 5321 5310 5299 5289 5278 5268 5258 5250 5243 5237 5233 5229 5228 5228 5232 5238 5247 5258 5270 5282 5296 5311 5325 5341 5358 5378 5400 5424 5450 5475 5501 5526 5550 5572 5592 5611
5344 5331 5320 5309 5298 5288 5278 5268 5258 5250 5242 5236 5231 5228 5227 5227 5230 5236 5244 5255 5266 5279 5292 5305 5319 5334 5350 5369 5390 5414 5438 5464 5488 5513 5537 5560 5581 5600
5342 5330 5319 5308 5298 5288 5278 5268 5258 5249 5241 5235 5230 5227 5226 5226 5229 5235 5243 5253 5264 5276 5288 5301 5314 5328 5344 5362 5382 5404 5428 5453 5477 5501 5525 5548 5569 5588
5342 5329 5317 5306 5296 5287 5277 5268 5258 5250 5242 5235 5230 5227 5225 5225 5228 5234 5241 5250 5261 5273 5285 5297 5309 5322 5337 5353 5372 5394 5417 5441 5466 5490 5514 5536 5556 5575
5341 5329 5317 5306 5296 5286 5277 5267 5258 5250 5242 5236 5230 5227 5225 5226 5228 5233 5240 5249 5260 5271 5282 5293 5305 5317 5331 5346 5364 5384 5407 5432 5455 5479 5502 5524 5545 5566
5341 5329 5318 5306 5296 5286 5277 5268 5259 5251 5243 5237 5231 5228 5226 5227 5229 5234 5240 5249 5258 5269 5279 5290 5301 5313 5325 5339 5357 5377 5399 5422 5445 5469 5492 5514 5535 5556
5340 5329 5317 5306 5296 5286 5277 5269 5261 5253 5245 5238 5233 5229 5228 5228 5230 5235 5241 5248 5257 5267 5278 5287 5298 5308 5320 5334 5351 5369 5390 5413 5436 5459 5481 5504 5526 5546
5339 5328 5317 5306 5296 5286 5278 5270 5263 5255 5248 5241 5235 5232 5230 5230 5232 5236 5242 5249 5257 5266 5276 5285 5294 5305 5317 5330 5345 5364 5384 5406 5429 5452 5474 5496 5518 5539
5340 5329 5318 5307 5297 5288 5280 5272 5265 5258 5251 5245 5239 5235 5233 5233 5235 5238 5243 5249 5257 5265 5274 5282 5291 5301 5313 5325 5340 5358 5379 5401 5423 5444 5466 5488 5510 5531
5340 5330 5319 5309 5300 5291 5282 5275 5268 5261 5255 5249 5244 5240 5237 5237 5238 5241 5245 5251 5257 5265 5272 5281 5290 5299 5310 5324 5339 5356 5376 5397 5418 5438 5459 5482 5504 5525
5340 5330 5320 5311 5302 5293 5284 5277 5271 5265 5259 5254 5249 5245 5243 5242 5243 5246 5249 5254 5260 5267 5273 5281 5290 5299 5310 5323 5338 5355 5374 5394 5414 5434 5455 5478 5501 5521
5341 5331 5322 5313 5304 5295 5287 5280 5274 5269 5264 5259 5255 5251 5249 5248 5249 5251 5255 5259 5264 5270 5276 5284 5291 5301 5312 5325 5339 5355 5372 5391 5411 5432 5452 5474 5496 5516
5341 5332 5323 5315 5306 5298 5290 5283 5277 5272 5268 5264 5261 5258 5256 5255 5256 5258 5261 5264 5269 5274 5280 5287 5295 5304 5314 5327 5340 5355 5372 5390 5410 5430 5449 5468 5486 5504
5341 5333 5325 5316 5308 5301 5293 5286 5281 5276 5272 5269 5266 5264 5262 5262 5262 5264 5267 5270 5275 5280 5286 5292 5300 5308 5318 5329 5342 5356 5373 5391 5409 5429 5448 5468 5485 5503
5341 5334 5326 5318 5311 5303 5296 5290 5284 5280 5276 5273 5271 5269 5268 5268 5268 5270 5272 5276 5280 5285 5291 5297 5305 5313 5321 5332 5343 5357 5372 5389 5407 5426 5445 5464 5485 5507